Creek Data

    Home     View Charts     View Raw Data     Messages

ID Distance Battery Voltage Battery Current Internal Temp Internal Humidity External Temp Solar Input rssi snr Time Stamp Record
35972 0.0 3.96 -5 50 40 51 0 -83 8 03/25/2025 06:30 AM 17743
35971 0.0 3.96 -5 50 40 51 0 -82 7 03/25/2025 06:15 AM 17742
35970 0.0 4.01 -5 50 40 52 0 -82 8 03/25/2025 06:00 AM 17741
35969 0.0 3.96 -5 49 40 51 0 -82 8 03/25/2025 05:45 AM 17740
35968 0.0 3.96 -5 49 40 51 0 -82 7 03/25/2025 05:30 AM 17739
35967 0.0 4.02 -5 49 40 51 0 -82 8 03/25/2025 05:15 AM 17738
35966 0.0 3.97 -5 49 40 51 0 -82 8 03/25/2025 05:00 AM 17737
35965 15.5 3.97 -5 50 40 50 0.1 -82 7 03/25/2025 04:45 AM 17736
35964 0.0 4.02 -5 50 40 51 0 -81 8 03/25/2025 04:30 AM 17735
35963 0.0 3.97 -5 49 41 52 0 -81 8 03/25/2025 04:15 AM 17734
35962 0.0 3.97 -5 50 41 51 0.1 -82 8 03/25/2025 04:00 AM 17733
35961 0.0 3.97 -5 50 41 51 0 -82 7 03/25/2025 03:45 AM 17732
35960 15.2 3.97 -5 51 40 52 0 -83 8 03/25/2025 03:30 AM 17731
35959 0.0 4.02 -5 52 40 53 0.1 -82 7 03/25/2025 03:15 AM 17730
35958 0.0 3.97 -5 52 40 51 0 -82 7 03/25/2025 03:00 AM 17729
35957 0.0 4.03 -5 53 40 54 0 -81 7 03/25/2025 02:45 AM 17728
35956 0.0 3.97 -5 52 40 54 0 -81 8 03/25/2025 02:30 AM 17727
35955 0.0 3.97 -5 52 41 52 0 -81 7 03/25/2025 02:15 AM 17726
35954 0.0 4.03 -5 52 41 54 0 -81 7 03/25/2025 02:00 AM 17725
35953 0.0 3.98 -5 52 41 54 0 -82 8 03/25/2025 01:45 AM 17724
35952 0.0 3.98 -5 53 41 54 0 -82 7 03/25/2025 01:30 AM 17723
35951 0.0 3.98 -5 53 41 55 0 -82 8 03/25/2025 01:15 AM 17722
35950 0.0 4.03 -5 54 41 56 0 -81 7 03/25/2025 01:00 AM 17721
35949 0.0 4.03 -5 54 41 55 0 -82 8 03/25/2025 12:45 AM 17720
35948 0.0 3.98 -35 55 41 56 0 -80 7 03/25/2025 12:30 AM 17719